| time (UTC) | temp C | wind direction | speed KPH | gust KPH | rain 1hr cm | rain 24hr cm | rain mn cm | humidity % | barometer mb |
| 20260507093511 | 12 | 360 | 4.8 | 11.3 | 0.00 | 0.00 | 0.00 | 68 | 1017.1 |
| 20260507093032 | 12 | 146 | 4.8 | 8.0 | 0.00 | 0.00 | 0.00 | 68 | 1017.1 |
| 20260507092509 | 12 | 0 | 0.0 | 12.9 | 0.00 | 0.00 | 0.00 | 69 | 1017.1 |
| 20260507092012 | 12 | 139 | 4.8 | 12.9 | 0.00 | 0.00 | 0.00 | 68 | 1017.2 |
| 20260507091530 | 12 | 162 | 4.8 | 9.7 | 0.00 | 0.00 | 0.00 | 69 | 1017.1 |
| 20260507091014 | 12 | 163 | 3.2 | 8.0 | 0.00 | 0.00 | 0.00 | 69 | 1017.1 |
| 20260507090517 | 12 | 164 | 0.0 | 9.7 | 0.00 | 0.00 | 0.00 | 71 | 1017.1 |
| 20260507090036 | 12 | 164 | 0.0 | 9.7 | 0.00 | 0.00 | 0.00 | 71 | 1017.2 |
| 20260507085511 | 12 | 164 | 1.6 | 11.3 | 0.00 | 0.00 | 0.00 | 73 | 1017.0 |
| 20260507085012 | 12 | 166 | 1.6 | 12.9 | 0.00 | 0.00 | 0.00 | 72 | 1017.0 |
| 20260507084531 | 12 | 170 | 4.8 | 12.9 | 0.00 | 0.00 | 0.00 | 74 | 1017.0 |
| 20260507084010 | 11 | 0 | 0.0 | 9.7 | 0.00 | 0.00 | 0.00 | 74 | 1017.1 |
| 20260507083513 | 11 | 173 | 1.6 | 16.1 | 0.00 | 0.00 | 0.00 | 74 | 1017.0 |
| 20260507083028 | 11 | 175 | 6.4 | 16.1 | 0.00 | 0.00 | 0.00 | 74 | 1017.1 |
| 20260507082512 | 11 | 163 | 1.6 | 6.4 | 0.00 | 0.00 | 0.00 | 75 | 1017.1 |
| 20260507082012 | 11 | 360 | 1.6 | 9.7 | 0.00 | 0.00 | 0.00 | 75 | 1017.0 |
| 20260507081541 | 11 | 360 | 1.6 | 9.7 | 0.00 | 0.00 | 0.00 | 76 | 1017.0 |
| 20260507081012 | 11 | 360 | 3.2 | 12.9 | 0.00 | 0.00 | 0.00 | 76 | 1017.0 |
| 20260507080513 | 11 | 360 | 4.8 | 12.9 | 0.00 | 0.00 | 0.00 | 76 | 1016.9 |
| 20260507080030 | 11 | 360 | 3.2 | 9.7 | 0.00 | 0.00 | 0.00 | 77 | 1017.0 |
| 20260507075516 | 10 | 360 | 3.2 | 12.9 | 0.00 | 0.00 | 0.00 | 78 | 1016.9 |
| 20260507075012 | 10 | 360 | 4.8 | 12.9 | 0.00 | 0.00 | 0.00 | 78 | 1017.0 |
| 20260507074550 | 10 | 360 | 4.8 | 8.0 | 0.00 | 0.00 | 0.00 | 78 | 1016.9 |
| 20260507074010 | 10 | 360 | 3.2 | 12.9 | 0.00 | 0.00 | 0.00 | 78 | 1017.0 |
| 20260507073511 | 10 | 360 | 3.2 | 12.9 | 0.00 | 0.00 | 0.00 | 79 | 1016.9 |
| 20260507073028 | 10 | 360 | 3.2 | 9.7 | 0.00 | 0.00 | 0.00 | 80 | 1016.8 |
| 20260507072510 | 10 | 360 | 3.2 | 9.7 | 0.00 | 0.00 | 0.00 | 81 | 1016.7 |
| 20260507072012 | 10 | 360 | 3.2 | 9.7 | 0.00 | 0.00 | 0.00 | 81 | 1016.7 |
| 20260507071529 | 9 | 360 | 3.2 | 9.7 | 0.00 | 0.00 | 0.00 | 81 | 1016.8 |
| 20260507071012 | 9 | 360 | 3.2 | 9.7 | 0.00 | 0.00 | 0.00 | 82 | 1016.6 |
| 20260507070512 | 9 | 360 | 4.8 | 9.7 | 0.00 | 0.00 | 0.00 | 82 | 1016.6 |
| 20260507070029 | 9 | 360 | 3.2 | 9.7 | 0.00 | 0.00 | 0.00 | 82 | 1016.7 |
| 20260507065512 | 9 | 360 | 4.8 | 9.7 | 0.00 | 0.00 | 0.00 | 83 | 1016.7 |
| 20260507065010 | 9 | 360 | 3.2 | 9.7 | 0.00 | 0.00 | 0.00 | 84 | 1016.7 |
| 20260507064532 | 8 | 360 | 4.8 | 9.7 | 0.00 | 0.00 | 0.00 | 84 | 1016.7 |
| 20260507064011 | 8 | 360 | 3.2 | 9.7 | 0.00 | 0.00 | 0.00 | 85 | 1016.7 |
| 20260507063511 | 8 | 360 | 4.8 | 9.7 | 0.00 | 0.00 | 0.00 | 86 | 1016.5 |
| 20260507063030 | 8 | 360 | 3.2 | 9.7 | 0.00 | 0.00 | 0.00 | 88 | 1016.6 |
| 20260507062511 | 8 | 360 | 3.2 | 9.7 | 0.00 | 0.00 | 0.00 | 89 | 1016.6 |
| 20260507062010 | 8 | 360 | 3.2 | 9.7 | 0.00 | 0.00 | 0.00 | 90 | 1016.6 |
| 20260507061532 | 7 | 360 | 3.2 | 9.7 | 0.00 | 0.00 | 0.00 | 91 | 1016.7 |
| 20260507061009 | 7 | 360 | 3.2 | 9.7 | 0.00 | 0.00 | 0.00 | 91 | 1016.6 |
| 20260507060512 | 7 | 360 | 1.6 | 9.7 | 0.00 | 0.00 | 0.00 | 91 | 1016.5 |
| 20260507060030 | 7 | 360 | 3.2 | 9.7 | 0.00 | 0.00 | 0.00 | 91 | 1016.5 |
| 20260507055512 | 6 | 360 | 1.6 | 4.8 | 0.00 | 0.00 | 0.00 | 91 | 1016.5 |
| 20260507055014 | 6 | 0 | 0.0 | 1.6 | 0.00 | 0.00 | 0.00 | 91 | 1016.5 |
| 20260507054530 | 6 | 0 | 0.0 | 1.6 | 0.00 | 0.00 | 0.00 | 91 | 1016.5 |
| 20260507054010 | 6 | 0 | 0.0 | 1.6 | 0.00 | 0.00 | 0.00 | 91 | 1016.5 |
| 20260507053513 | 6 | 0 | 0.0 | 1.6 | 0.00 | 0.00 | 0.00 | 90 | 1016.5 |
| 20260507053030 | 5 | 0 | 0.0 | 3.2 | 0.00 | 0.00 | 0.00 | 90 | 1016.4 |
| 20260507052512 | 5 | 0 | 0.0 | 3.2 | 0.00 | 0.00 | 0.00 | 90 | 1016.4 |
| 20260507052011 | 5 | 360 | 0.0 | 4.8 | 0.00 | 0.00 | 0.00 | 90 | 1016.3 |
| 20260507051530 | 5 | 0 | 0.0 | 4.8 | 0.00 | 0.00 | 0.00 | 90 | 1016.4 |
| 20260507051017 | 5 | 360 | 0.0 | 4.8 | 0.00 | 0.00 | 0.00 | 90 | 1016.3 |
| 20260507050511 | 6 | 0 | 0.0 | 3.2 | 0.00 | 0.00 | 0.00 | 90 | 1016.4 |
| 20260507050029 | 5 | 360 | 0.0 | 3.2 | 0.00 | 0.00 | 0.00 | 90 | 1016.3 |
| 20260507045511 | 5 | 360 | 1.6 | 3.2 | 0.00 | 0.00 | 0.00 | 89 | 1016.3 |
| 20260507045010 | 5 | 360 | 0.0 | 0.0 | 0.00 | 0.00 | 0.00 | 89 | 1016.2 |
| 20260507044530 | 5 | 0 | 0.0 | 0.0 | 0.00 | 0.00 | 0.00 | 89 | 1016.3 |
| 20260507044011 | 5 | 0 | 0.0 | 0.0 | 0.00 | 0.00 | 0.00 | 89 | 1016.3 |
| 20260507043511 | 5 | 0 | 0.0 | 0.0 | 0.00 | 0.00 | 0.00 | 89 | 1016.3 |
| 20260507043032 | 5 | 0 | 0.0 | 0.0 | 0.00 | 0.00 | 0.00 | 89 | 1016.3 |
| 20260507042512 | 6 | 0 | 0.0 | 0.0 | 0.00 | 0.00 | 0.00 | 89 | 1016.1 |
| 20260507042011 | 6 | 0 | 0.0 | 0.0 | 0.00 | 0.00 | 0.00 | 89 | 1016.2 |
| 20260507041531 | 6 | 0 | 0.0 | 0.0 | 0.00 | 0.00 | 0.00 | 89 | 1016.3 |
| 20260507041013 | 6 | 0 | 0.0 | 0.0 | 0.00 | 0.00 | 0.00 | 89 | 1016.2 |
| 20260507040512 | 6 | 0 | 0.0 | 0.0 | 0.00 | 0.00 | 0.00 | 89 | 1016.1 |
| 20260507040029 | 6 | 0 | 0.0 | 0.0 | 0.00 | 0.00 | 0.00 | 89 | 1016.1 |
| 20260507035514 | 6 | 0 | 0.0 | 0.0 | 0.00 | 0.00 | 0.00 | 89 | 1016.1 |
| 20260507035012 | 6 | 0 | 0.0 | 0.0 | 0.00 | 0.00 | 0.00 | 89 | 1015.9 |
| 20260507034533 | 6 | 0 | 0.0 | 0.0 | 0.00 | 0.00 | 0.00 | 89 | 1016.2 |
| 20260507034012 | 6 | 0 | 0.0 | 0.0 | 0.00 | 0.00 | 0.00 | 89 | 1016.1 |
| 20260507033514 | 6 | 0 | 0.0 | 0.0 | 0.00 | 0.00 | 0.00 | 89 | 1016.1 |
| 20260507033032 | 6 | 0 | 0.0 | 0.0 | 0.00 | 0.00 | 0.00 | 89 | 1016.1 |
| 20260507032512 | 6 | 0 | 0.0 | 0.0 | 0.00 | 0.00 | 0.00 | 89 | 1016.0 |
| 20260507032015 | 6 | 0 | 0.0 | 0.0 | 0.00 | 0.00 | 0.00 | 89 | 1016.0 |
| 20260507031531 | 6 | 0 | 0.0 | 1.6 | 0.00 | 0.00 | 0.00 | 89 | 1016.1 |
| 20260507031015 | 6 | 0 | 0.0 | 1.6 | 0.00 | 0.00 | 0.00 | 88 | 1016.0 |
| 20260507030513 | 6 | 0 | 0.0 | 1.6 | 0.00 | 0.00 | 0.00 | 88 | 1015.9 |
| 20260507030030 | 6 | 0 | 0.0 | 0.0 | 0.00 | 0.00 | 0.00 | 88 | 1016.0 |
| 20260507025513 | 6 | 0 | 0.0 | 0.0 | 0.00 | 0.00 | 0.00 | 88 | 1016.0 |
| 20260507025014 | 6 | 0 | 0.0 | 0.0 | 0.00 | 0.00 | 0.00 | 88 | 1015.9 |
| 20260507024533 | 6 | 0 | 0.0 | 0.0 | 0.00 | 0.00 | 0.00 | 88 | 1016.0 |
| 20260507024016 | 6 | 0 | 0.0 | 0.0 | 0.00 | 0.00 | 0.00 | 88 | 1016.0 |
| 20260507023514 | 6 | 0 | 0.0 | 0.0 | 0.00 | 0.00 | 0.00 | 88 | 1016.0 |
| 20260507023030 | 6 | 0 | 0.0 | 0.0 | 0.00 | 0.00 | 0.00 | 88 | 1016.0 |
| 20260507022512 | 6 | 0 | 0.0 | 0.0 | 0.00 | 0.00 | 0.00 | 88 | 1016.1 |
| 20260507022013 | 6 | 0 | 0.0 | 0.0 | 0.00 | 0.00 | 0.00 | 88 | 1016.0 |
| 20260507021534 | 6 | 0 | 0.0 | 0.0 | 0.00 | 0.00 | 0.00 | 88 | 1016.0 |
| 20260507021014 | 6 | 0 | 0.0 | 0.0 | 0.00 | 0.00 | 0.00 | 87 | 1016.0 |
| 20260507020516 | 6 | 0 | 0.0 | 0.0 | 0.00 | 0.00 | 0.00 | 87 | 1016.0 |
| 20260507020031 | 6 | 0 | 0.0 | 0.0 | 0.00 | 0.00 | 0.00 | 87 | 1015.9 |
| 20260507015515 | 6 | 0 | 0.0 | 0.0 | 0.00 | 0.00 | 0.00 | 87 | 1015.9 |
| 20260507015011 | 6 | 0 | 0.0 | 0.0 | 0.00 | 0.00 | 0.00 | 86 | 1015.9 |
| 20260507014543 | 6 | 0 | 0.0 | 0.0 | 0.00 | 0.00 | 0.00 | 86 | 1015.9 |
| 20260507014013 | 6 | 0 | 0.0 | 0.0 | 0.00 | 0.00 | 0.00 | 86 | 1015.9 |
| 20260507013516 | 6 | 0 | 0.0 | 0.0 | 0.00 | 0.00 | 0.00 | 86 | 1015.8 |
| 20260507013031 | 6 | 0 | 0.0 | 0.0 | 0.00 | 0.00 | 0.00 | 86 | 1015.8 |
| 20260507012513 | 6 | 0 | 0.0 | 0.0 | 0.00 | 0.00 | 0.00 | 85 | 1015.7 |
| 20260507012017 | 7 | 0 | 0.0 | 0.0 | 0.00 | 0.00 | 0.00 | 85 | 1015.8 |
| 20260507011533 | 7 | 0 | 0.0 | 1.6 | 0.00 | 0.00 | 0.00 | 85 | 1015.8 |
| 20260507011013 | 7 | 0 | 0.0 | 1.6 | 0.00 | 0.00 | 0.00 | 85 | 1015.6 |
| 20260507010513 | 7 | 360 | 0.0 | 1.6 | 0.00 | 0.00 | 0.00 | 85 | 1015.7 |
| 20260507010035 | 7 | 0 | 0.0 | 1.6 | 0.00 | 0.00 | 0.00 | 84 | 1015.7 |
| 20260507005514 | 7 | 0 | 0.0 | 3.2 | 0.00 | 0.00 | 0.00 | 84 | 1015.8 |
| 20260507005017 | 7 | 0 | 0.0 | 3.2 | 0.00 | 0.00 | 0.00 | 84 | 1015.7 |
| 20260507004532 | 7 | 360 | 0.0 | 3.2 | 0.00 | 0.00 | 0.00 | 84 | 1015.8 |
| 20260507004018 | 8 | 0 | 0.0 | 3.2 | 0.00 | 0.00 | 0.00 | 84 | 1015.7 |
| 20260507003514 | 8 | 360 | 0.0 | 8.0 | 0.00 | 0.00 | 0.00 | 83 | 1015.7 |
| 20260507003033 | 8 | 0 | 0.0 | 8.0 | 0.00 | 0.00 | 0.00 | 84 | 1015.6 |
| 20260507002516 | 8 | 360 | 1.6 | 12.9 | 0.00 | 0.00 | 0.00 | 84 | 1015.7 |
| 20260507002015 | 8 | 360 | 3.2 | 12.9 | 0.00 | 0.00 | 0.00 | 84 | 1015.6 |
| 20260507001532 | 8 | 360 | 3.2 | 9.7 | 0.00 | 0.00 | 0.00 | 84 | 1015.7 |
| 20260507001017 | 8 | 360 | 3.2 | 9.7 | 0.00 | 0.00 | 0.00 | 84 | 1015.6 |
| 20260507000514 | 8 | 360 | 4.8 | 9.7 | 0.00 | 0.00 | 0.00 | 84 | 1015.8 |
| 20260507000036 | 8 | 360 | 1.6 | 8.0 | 0.00 | 0.00 | 0.00 | 85 | 1015.7 |
| 20260506235513 | 8 | 360 | 3.2 | 12.9 | 0.00 | 0.00 | 0.00 | 85 | 1015.7 |
| 20260506235015 | 8 | 360 | 3.2 | 12.9 | 0.00 | 0.00 | 0.00 | 85 | 1015.7 |
| 20260506234532 | 8 | 360 | 3.2 | 9.7 | 0.00 | 0.00 | 0.00 | 86 | 1015.7 |
| 20260506234014 | 8 | 360 | 1.6 | 8.0 | 0.00 | 0.00 | 0.00 | 86 | 1015.7 |
| 20260506233514 | 8 | 360 | 3.2 | 8.0 | 0.00 | 0.00 | 0.00 | 87 | 1015.7 |
| 20260506233035 | 8 | 360 | 3.2 | 8.0 | 0.00 | 0.00 | 0.00 | 87 | 1015.7 |
| 20260506232513 | 8 | 360 | 3.2 | 12.9 | 0.00 | 0.00 | 0.00 | 88 | 1015.7 |
| 20260506232013 | 8 | 360 | 4.8 | 12.9 | 0.00 | 0.00 | 0.00 | 88 | 1015.7 |
| 20260506231531 | 8 | 360 | 3.2 | 8.0 | 0.00 | 0.00 | 0.00 | 88 | 1015.6 |
| 20260506231016 | 8 | 360 | 0.0 | 1.6 | 0.00 | 0.00 | 0.00 | 89 | 1015.5 |
| 20260506230512 | 8 | 0 | 0.0 | 1.6 | 0.00 | 0.00 | 0.00 | 88 | 1015.6 |
| 20260506230031 | 8 | 0 | 0.0 | 1.6 | 0.00 | 0.00 | 0.00 | 88 | 1015.4 |
| 20260506225515 | 8 | 0 | 0.0 | 3.2 | 0.00 | 0.00 | 0.00 | 88 | 1015.5 |
| 20260506225014 | 8 | 0 | 0.0 | 3.2 | 0.00 | 0.00 | 0.00 | 88 | 1015.5 |
| 20260506224531 | 8 | 0 | 0.0 | 4.8 | 0.00 | 0.00 | 0.00 | 88 | 1015.5 |
| 20260506224016 | 8 | 360 | 0.0 | 4.8 | 0.00 | 0.00 | 0.00 | 88 | 1015.4 |
| 20260506223514 | 8 | 360 | 0.0 | 4.8 | 0.00 | 0.00 | 0.00 | 88 | 1015.4 |
| 20260506223028 | 8 | 0 | 1.6 | 4.8 | 0.00 | 0.00 | 0.00 | 88 | 1015.3 |
| 20260506222512 | 8 | 360 | 1.6 | 4.8 | 0.00 | 0.00 | 0.00 | 88 | 1015.4 |
| 20260506222011 | 8 | 360 | 0.0 | 4.8 | 0.00 | 0.00 | 0.00 | 88 | 1015.3 |
| 20260506221532 | 8 | 360 | 0.0 | 4.8 | 0.00 | 0.00 | 0.00 | 88 | 1015.3 |
| 20260506221017 | 9 | 360 | 0.0 | 4.8 | 0.00 | 0.00 | 0.00 | 88 | 1015.2 |
| 20260506220513 | 8 | 0 | 1.6 | 4.8 | 0.00 | 0.00 | 0.00 | 87 | 1015.2 |
| 20260506220033 | 9 | 0 | 0.0 | 3.2 | 0.00 | 0.00 | 0.00 | 87 | 1015.2 |
| 20260506215516 | 9 | 0 | 0.0 | 4.8 | 0.00 | 0.00 | 0.00 | 87 | 1015.1 |
| 20260506215016 | 9 | 0 | 0.0 | 4.8 | 0.00 | 0.00 | 0.00 | 87 | 1015.1 |
| 20260506214530 | 9 | 0 | 0.0 | 4.8 | 0.00 | 0.00 | 0.00 | 87 | 1015.1 |
| 20260506214014 | 9 | 0 | 0.0 | 4.8 | 0.00 | 0.00 | 0.00 | 87 | 1015.2 |
| 20260506213512 | 9 | 0 | 0.0 | 4.8 | 0.00 | 0.00 | 0.00 | 87 | 1015.1 |
| 20260506213031 | 9 | 0 | 0.0 | 4.8 | 0.00 | 0.00 | 0.00 | 87 | 1015.2 |
| 20260506212513 | 9 | 0 | 0.0 | 4.8 | 0.00 | 0.00 | 0.00 | 87 | 1015.1 |
| 20260506212014 | 9 | 0 | 1.6 | 4.8 | 0.00 | 0.00 | 0.00 | 87 | 1015.1 |
| 20260506211534 | 9 | 360 | 1.6 | 4.8 | 0.00 | 0.00 | 0.00 | 87 | 1015.1 |
| 20260506211013 | 9 | 0 | 0.0 | 3.2 | 0.00 | 0.00 | 0.00 | 87 | 1014.9 |
| 20260506210517 | 9 | 360 | 0.0 | 3.2 | 0.00 | 0.00 | 0.00 | 87 | 1015.1 |
| 20260506210032 | 9 | 0 | 0.0 | 4.8 | 0.00 | 0.00 | 0.00 | 86 | 1015.0 |
| 20260506205515 | 9 | 360 | 1.6 | 4.8 | 0.00 | 0.00 | 0.00 | 86 | 1015.0 |
| 20260506205014 | 9 | 1.6 | 3.2 | 0.00 | 0.00 | 0.00 | 86 | 1014.9 | |
| 20260506204534 | 9 | 360 | 1.6 | 6.4 | 0.00 | 0.00 | 0.00 | 86 | 1014.7 |
| 20260506204013 | 9 | 360 | 1.6 | 6.4 | 0.00 | 0.00 | 0.00 | 86 | 1014.8 |
| 20260506203518 | 9 | 0 | 0.0 | 4.8 | 0.00 | 0.00 | 0.00 | 86 | 1014.9 |
| 20260506203030 | 9 | 360 | 1.6 | 4.8 | 0.00 | 0.00 | 0.00 | 85 | 1014.9 |
| 20260506202513 | 9 | 0 | 0.0 | 3.2 | 0.00 | 0.00 | 0.00 | 85 | 1014.9 |
| 20260506202011 | 9 | 0 | 0.0 | 3.2 | 0.00 | 0.00 | 0.00 | 85 | 1014.8 |
| 20260506201532 | 9 | 0 | 0.0 | 4.8 | 0.00 | 0.00 | 0.00 | 85 | 1014.7 |
| 20260506201011 | 9 | 360 | 0.0 | 4.8 | 0.00 | 0.00 | 0.00 | 85 | 1014.7 |
| 20260506200519 | 9 | 360 | 1.6 | 8.0 | 0.00 | 0.00 | 0.00 | 84 | 1014.7 |
| 20260506200031 | 9 | 360 | 1.6 | 8.0 | 0.00 | 0.00 | 0.00 | 84 | 1014.6 |
| 20260506195513 | 9 | 360 | 3.2 | 12.9 | 0.00 | 0.00 | 0.00 | 84 | 1014.6 |
| 20260506195014 | 9 | 360 | 1.6 | 12.9 | 0.00 | 0.00 | 0.00 | 84 | 1014.7 |
| 20260506194528 | 10 | 360 | 4.8 | 14.5 | 0.00 | 0.00 | 0.00 | 83 | 1014.6 |
| 20260506194013 | 10 | 360 | 3.2 | 14.5 | 0.00 | 0.00 | 0.00 | 83 | 1014.6 |
| 20260506193513 | 10 | 360 | 6.4 | 16.1 | 0.00 | 0.00 | 0.00 | 82 | 1014.4 |
| 20260506193032 | 10 | 360 | 4.8 | 17.7 | 0.00 | 0.00 | 0.00 | 81 | 1014.4 |
| 20260506192516 | 10 | 360 | 8.0 | 17.7 | 0.00 | 0.00 | 0.00 | 80 | 1014.5 |
| 20260506192013 | 10 | 360 | 6.4 | 17.7 | 0.00 | 0.00 | 0.00 | 80 | 1014.5 |
| 20260506191530 | 10 | 360 | 4.8 | 12.9 | 0.00 | 0.00 | 0.00 | 79 | 1014.4 |
| 20260506191014 | 10 | 360 | 3.2 | 12.9 | 0.00 | 0.00 | 0.00 | 79 | 1014.3 |
| 20260506190514 | 10 | 360 | 3.2 | 12.9 | 0.00 | 0.00 | 0.00 | 79 | 1014.3 |
| 20260506190030 | 10 | 360 | 3.2 | 9.7 | 0.00 | 0.00 | 0.00 | 78 | 1014.3 |
| 20260506185510 | 10 | 360 | 3.2 | 12.9 | 0.00 | 0.00 | 0.00 | 77 | 1014.2 |
| 20260506185013 | 10 | 360 | 3.2 | 12.9 | 0.00 | 0.00 | 0.00 | 76 | 1014.2 |
| 20260506184531 | 11 | 360 | 4.8 | 12.9 | 0.00 | 0.00 | 0.00 | 76 | 1014.1 |
| 20260506184014 | 11 | 360 | 3.2 | 8.0 | 0.00 | 0.00 | 0.00 | 75 | 1014.0 |
| 20260506183514 | 11 | 360 | 3.2 | 9.7 | 0.00 | 0.00 | 0.00 | 75 | 1014.0 |
| 20260506183030 | 11 | 360 | 3.2 | 12.9 | 0.00 | 0.00 | 0.00 | 74 | 1013.9 |
| 20260506182513 | 11 | 360 | 4.8 | 12.9 | 0.00 | 0.00 | 0.00 | 73 | 1013.8 |
| 20260506182011 | 11 | 360 | 4.8 | 16.1 | 0.00 | 0.00 | 0.00 | 72 | 1013.7 |
| 20260506181530 | 11 | 360 | 8.0 | 16.1 | 0.00 | 0.00 | 0.00 | 70 | 1013.7 |
| 20260506181017 | 12 | 360 | 1.6 | 8.0 | 0.00 | 0.00 | 0.00 | 68 | 1013.7 |
| 20260506180515 | 12 | 360 | 1.6 | 12.9 | 0.00 | 0.00 | 0.00 | 67 | 1013.6 |
| 20260506180034 | 12 | 360 | 3.2 | 12.9 | 0.00 | 0.00 | 0.00 | 66 | 1013.6 |
| 20260506175514 | 12 | 360 | 1.6 | 12.9 | 0.00 | 0.00 | 0.00 | 68 | 1013.5 |
| 20260506175013 | 12 | 360 | 3.2 | 12.9 | 0.00 | 0.00 | 0.00 | 68 | 1013.5 |
| 20260506174531 | 12 | 360 | 4.8 | 9.7 | 0.00 | 0.00 | 0.00 | 68 | 1013.4 |
| 20260506174013 | 12 | 360 | 1.6 | 9.7 | 0.00 | 0.00 | 0.00 | 69 | 1013.4 |
| 20260506173515 | 12 | 360 | 3.2 | 17.7 | 0.00 | 0.00 | 0.00 | 68 | 1013.3 |
| 20260506173029 | 12 | 360 | 4.8 | 17.7 | 0.00 | 0.00 | 0.00 | 67 | 1013.4 |
| 20260506172514 | 12 | 360 | 6.4 | 16.1 | 0.00 | 0.00 | 0.00 | 67 | 1013.4 |
| 20260506172013 | 12 | 360 | 8.0 | 16.1 | 0.00 | 0.00 | 0.00 | 67 | 1013.4 |
| 20260506171532 | 12 | 360 | 4.8 | 14.5 | 0.00 | 0.00 | 0.00 | 67 | 1013.4 |
| 20260506171013 | 12 | 329 | 3.2 | 16.1 | 0.00 | 0.00 | 0.00 | 67 | 1013.3 |
| 20260506170513 | 12 | 13 | 4.8 | 16.1 | 0.00 | 0.00 | 0.00 | 66 | 1013.3 |
| 20260506170030 | 12 | 23 | 6.4 | 16.1 | 0.00 | 0.00 | 0.00 | 66 | 1013.4 |
| 20260506165515 | 12 | 360 | 6.4 | 14.5 | 0.00 | 0.00 | 0.00 | 66 | 1013.2 |
| 20260506165014 | 12 | 348 | 3.2 | 12.9 | 0.00 | 0.00 | 0.00 | 66 | 1013.3 |
| 20260506164532 | 12 | 18 | 4.8 | 14.5 | 0.00 | 0.00 | 0.00 | 65 | 1013.3 |
| 20260506164013 | 12 | 19 | 4.8 | 14.5 | 0.00 | 0.00 | 0.00 | 65 | 1013.4 |
| 20260506163513 | 12 | 30 | 8.0 | 16.1 | 0.00 | 0.00 | 0.00 | 65 | 1013.3 |
| 20260506163053 | 12 | 34 | 4.8 | 19.3 | 0.00 | 0.00 | 0.00 | 64 | 1013.3 |
| 20260506162519 | 12 | 14 | 3.2 | 19.3 | 0.00 | 0.00 | 0.00 | 63 | 1013.4 |
| 20260506162014 | 12 | 17 | 3.2 | 16.1 | 0.00 | 0.00 | 0.00 | 64 | 1013.4 |
| 20260506161533 | 12 | 17 | 4.8 | 16.1 | 0.00 | 0.00 | 0.00 | 64 | 1013.3 |
| 20260506161013 | 12 | 26 | 6.4 | 20.9 | 0.00 | 0.00 | 0.00 | 64 | 1013.3 |
| 20260506160514 | 12 | 13 | 8.0 | 20.9 | 0.00 | 0.00 | 0.00 | 64 | 1013.4 |
| 20260506160032 | 12 | 30 | 8.0 | 16.1 | 0.00 | 0.00 | 0.00 | 64 | 1013.3 |
| 20260506155514 | 12 | 360 | 4.8 | 14.5 | 0.00 | 0.00 | 0.00 | 65 | 1013.2 |
| 20260506155013 | 12 | 360 | 3.2 | 14.5 | 0.00 | 0.00 | 0.00 | 65 | 1013.3 |
| 20260506154532 | 12 | 360 | 6.4 | 14.5 | 0.00 | 0.00 | 0.00 | 65 | 1013.3 |
| 20260506154014 | 12 | 360 | 3.2 | 14.5 | 0.00 | 0.00 | 0.00 | 65 | 1013.3 |
| 20260506153513 | 12 | 360 | 4.8 | 17.7 | 0.00 | 0.00 | 0.00 | 65 | 1013.4 |
| 20260506153031 | 12 | 360 | 6.4 | 17.7 | 0.00 | 0.00 | 0.00 | 65 | 1013.3 |
| 20260506152514 | 12 | 360 | 4.8 | 14.5 | 0.00 | 0.00 | 0.00 | 65 | 1013.3 |
| 20260506152010 | 12 | 360 | 4.8 | 14.5 | 0.00 | 0.00 | 0.00 | 66 | 1013.3 |
| 20260506151532 | 12 | 360 | 4.8 | 16.1 | 0.00 | 0.00 | 0.00 | 66 | 1013.3 |
| 20260506151014 | 11 | 360 | 8.0 | 17.7 | 0.00 | 0.00 | 0.00 | 66 | 1013.4 |
| 20260506150514 | 11 | 360 | 4.8 | 19.3 | 0.00 | 0.00 | 0.00 | 66 | 1013.3 |
| 20260506150030 | 11 | 360 | 8.0 | 19.3 | 0.00 | 0.00 | 0.00 | 66 | 1013.3 |
| 20260506145517 | 11 | 360 | 8.0 | 17.7 | 0.00 | 0.00 | 0.00 | 66 | 1013.3 |
| 20260506145013 | 11 | 360 | 8.0 | 19.3 | 0.00 | 0.00 | 0.00 | 66 | 1013.4 |
| 20260506144532 | 11 | 360 | 6.4 | 19.3 | 0.00 | 0.00 | 0.00 | 67 | 1013.3 |
| 20260506144015 | 11 | 360 | 9.7 | 19.3 | 0.00 | 0.00 | 0.00 | 68 | 1013.3 |
| 20260506143517 | 11 | 360 | 9.7 | 17.7 | 0.00 | 0.00 | 0.00 | 67 | 1013.3 |
| 20260506143040 | 11 | 360 | 6.4 | 16.1 | 0.00 | 0.00 | 0.00 | 68 | 1013.2 |
| 20260506142512 | 11 | 360 | 6.4 | 16.1 | 0.00 | 0.00 | 0.00 | 68 | 1013.3 |
| 20260506142013 | 11 | 360 | 4.8 | 17.7 | 0.00 | 0.00 | 0.00 | 68 | 1013.2 |
| 20260506141535 | 11 | 360 | 8.0 | 17.7 | 0.00 | 0.00 | 0.00 | 68 | 1013.3 |
| 20260506141011 | 12 | 360 | 8.0 | 17.7 | 0.00 | 0.00 | 0.00 | 67 | 1013.2 |
| 20260506140512 | 12 | 360 | 8.0 | 17.7 | 0.00 | 0.00 | 0.00 | 67 | 1013.2 |
| 20260506140032 | 12 | 360 | 9.7 | 17.7 | 0.00 | 0.00 | 0.00 | 67 | 1013.3 |
| 20260506135511 | 12 | 360 | 6.4 | 22.5 | 0.00 | 0.00 | 0.00 | 67 | 1013.3 |
| 20260506135013 | 12 | 360 | 9.7 | 22.5 | 0.00 | 0.00 | 0.00 | 66 | 1013.3 |
| 20260506134530 | 12 | 25 | 8.0 | 22.5 | 0.00 | 0.00 | 0.00 | 66 | 1013.3 |
| 20260506134020 | 12 | 360 | 8.0 | 22.5 | 0.00 | 0.00 | 0.00 | 64 | 1013.3 |
| 20260506133513 | 12 | 14 | 11.3 | 22.5 | 0.00 | 0.00 | 0.00 | 64 | 1013.3 |
| 20260506133030 | 12 | 360 | 9.7 | 22.5 | 0.00 | 0.00 | 0.00 | 66 | 1013.2 |
| 20260506132511 | 12 | 360 | 8.0 | 17.7 | 0.00 | 0.00 | 0.00 | 66 | 1013.3 |
| 20260506132012 | 12 | 360 | 6.4 | 19.3 | 0.00 | 0.00 | 0.00 | 68 | 1013.3 |
| 20260506131532 | 12 | 360 | 3.2 | 19.3 | 0.00 | 0.00 | 0.00 | 68 | 1013.3 |
| 20260506131013 | 12 | 360 | 6.4 | 20.9 | 0.00 | 0.00 | 0.00 | 68 | 1013.2 |
| 20260506130514 | 12 | 360 | 11.3 | 22.5 | 0.00 | 0.00 | 0.00 | 67 | 1013.3 |
| 20260506130031 | 12 | 360 | 9.7 | 22.5 | 0.00 | 0.00 | 0.00 | 66 | 1013.2 |
| 20260506125511 | 12 | 360 | 6.4 | 17.7 | 0.00 | 0.00 | 0.00 | 68 | 1013.3 |
| 20260506125013 | 12 | 360 | 6.4 | 17.7 | 0.00 | 0.00 | 0.00 | 68 | 1013.3 |
| 20260506124529 | 12 | 360 | 4.8 | 17.7 | 0.00 | 0.00 | 0.00 | 68 | 1013.2 |
| 20260506124013 | 12 | 360 | 9.7 | 17.7 | 0.00 | 0.00 | 0.00 | 67 | 1013.2 |
| 20260506123511 | 12 | 333 | 4.8 | 19.3 | 0.00 | 0.00 | 0.00 | 67 | 1013.2 |
| 20260506123033 | 12 | 330 | 6.4 | 19.3 | 0.00 | 0.00 | 0.00 | 68 | 1013.1 |
| 20260506122514 | 12 | 14 | 8.0 | 19.3 | 0.00 | 0.00 | 0.00 | 68 | 1013.1 |
| 20260506122012 | 12 | 333 | 3.2 | 19.3 | 0.00 | 0.00 | 0.00 | 68 | 1013.1 |
| 20260506121538 | 12 | 346 | 6.4 | 17.7 | 0.00 | 0.00 | 0.00 | 68 | 1013.3 |
| 20260506121014 | 12 | 360 | 4.8 | 24.1 | 0.00 | 0.00 | 0.00 | 70 | 1013.3 |
| 20260506120512 | 12 | 360 | 9.7 | 24.1 | 0.00 | 0.00 | 0.00 | 69 | 1013.3 |
| 20260506120030 | 12 | 360 | 9.7 | 19.3 | 0.00 | 0.00 | 0.00 | 68 | 1013.3 |
| 20260506115512 | 12 | 360 | 8.0 | 19.3 | 0.00 | 0.00 | 0.00 | 68 | 1013.3 |
| 20260506115013 | 12 | 360 | 8.0 | 20.9 | 0.00 | 0.00 | 0.00 | 69 | 1013.3 |
| 20260506114538 | 12 | 360 | 8.0 | 22.5 | 0.00 | 0.00 | 0.00 | 70 | 1013.3 |
| 20260506114012 | 12 | 360 | 12.9 | 22.5 | 0.00 | 0.00 | 0.00 | 69 | 1013.4 |
| 20260506113512 | 12 | 360 | 9.7 | 22.5 | 0.00 | 0.00 | 0.00 | 69 | 1013.3 |
| 20260506113029 | 12 | 360 | 12.9 | 22.5 | 0.00 | 0.00 | 0.00 | 68 | 1013.3 |
| 20260506112514 | 11 | 360 | 11.3 | 22.5 | 0.00 | 0.00 | 0.00 | 72 | 1013.3 |
| 20260506112016 | 11 | 360 | 9.7 | 22.5 | 0.00 | 0.00 | 0.00 | 74 | 1013.2 |
| 20260506111537 | 11 | 360 | 12.9 | 22.5 | 0.00 | 0.00 | 0.00 | 73 | 1013.2 |
| 20260506111014 | 11 | 360 | 9.7 | 22.5 | 0.00 | 0.00 | 0.00 | 73 | 1013.3 |
| 20260506110517 | 11 | 360 | 6.4 | 22.5 | 0.00 | 0.00 | 0.00 | 74 | 1013.3 |
| 20260506110031 | 11 | 360 | 11.3 | 22.5 | 0.00 | 0.00 | 0.00 | 73 | 1013.2 |
| 20260506105513 | 10 | 360 | 9.7 | 20.9 | 0.00 | 0.00 | 0.00 | 75 | 1013.3 |
| 20260506105014 | 10 | 360 | 6.4 | 19.3 | 0.00 | 0.00 | 0.00 | 75 | 1013.5 |
| 20260506104533 | 10 | 360 | 8.0 | 19.3 | 0.00 | 0.00 | 0.00 | 76 | 1013.4 |
| 20260506104013 | 10 | 360 | 4.8 | 17.7 | 0.00 | 0.00 | 0.00 | 78 | 1013.3 |
| 20260506103511 | 10 | 360 | 6.4 | 24.1 | 0.00 | 0.00 | 0.00 | 79 | 1013.3 |
| 20260506103032 | 10 | 360 | 11.3 | 24.1 | 0.00 | 0.00 | 0.00 | 78 | 1013.3 |
| 20260506102511 | 10 | 360 | 8.0 | 20.9 | 0.00 | 0.00 | 0.00 | 77 | 1013.2 |
| 20260506102014 | 10 | 360 | 11.3 | 20.9 | 0.00 | 0.00 | 0.00 | 77 | 1013.3 |
| 20260506101534 | 10 | 19 | 8.0 | 16.1 | 0.00 | 0.00 | 0.00 | 77 | 1013.2 |
| 20260506101013 | 11 | 360 | 6.4 | 19.3 | 0.00 | 0.00 | 0.00 | 76 | 1013.2 |
| 20260506100512 | 11 | 360 | 6.4 | 19.3 | 0.00 | 0.00 | 0.00 | 76 | 1013.2 |
| 20260506100031 | 11 | 360 | 6.4 | 17.7 | 0.00 | 0.00 | 0.00 | 75 | 1013.2 |
| 20260506095511 | 11 | 360 | 4.8 | 20.9 | 0.00 | 0.00 | 0.00 | 75 | 1013.2 |
| 20260506095017 | 11 | 360 | 6.4 | 20.9 | 0.00 | 0.00 | 0.00 | 75 | 1013.2 |
| 20260506094530 | 11 | 360 | 9.7 | 20.9 | 0.00 | 0.00 | 0.00 | 75 | 1013.3 |
| 20260506094013 | 10 | 360 | 8.0 | 20.9 | 0.00 | 0.00 | 0.00 | 76 | 1013.3 |